Regional Weather Roundup
Issued by NWS

Home | Current Version | Previous Version | Graphics & Text | Print | Product List | Glossary On
Versions: 1 2 3 4 5 6 7 8 9 10 11 12 13 14 15 16 17 18 19 20 21 22 23 24 25 26 27 28 29 30 31 32 33 34 35 36 37 38 39 40 41 42 43 44 45 46 47 48 49 50
000
ASUS43 KOAX 051402
RWRNE

WEATHER ROUNDUP FOR NEBRASKA
NATIONAL WEATHER SERVICE OMAHA NE
900 AM CDT SUN JUL 05 2015

NOTES: SATELLITE DATA IS BEING USED TO AUGMENT CLOUD COVER ABOVE
       12000 FEET.
       "FAIR" INDICATES FEW OR NO CLOUDS BELOW 12,000 FEET WITH NO
       SIGNIFICANT WEATHER AND/OR OBSTRUCTIONS TO VISIBILITY.

  * THESE STATIONS DO NOT REPORT WEATHER SUCH AS RAIN...SNOW OR FOG.

NEZ001>004-019>022-054>056-051500-
NEBRASKA PANHANDLE

CITY           SKY/WX    TMP DP  RH WIND       PRES   REMARKS
SCOTTSBLUFF    MOSUNNY   72  64  76 NW3       29.87R
ALLIANCE       SUNNY     72  65  78 SE10      29.85S
CHADRON        SUNNY     74  66  76 CALM      29.79S
KIMBALL          N/A    N/A N/A N/A MISG        N/A
SIDNEY         SUNNY     76  60  57 VRB5      29.90S
$$

NEZ057>060-069>072-079>082-051500-
SOUTHWEST NEBRASKA

CITY           SKY/WX    TMP DP  RH WIND       PRES   REMARKS
NORTH PLATTE   SUNNY     78  63  59 S12       29.85R
IMPERIAL       SUNNY     75  63  66 SW12      29.86F
LEXINGTON      SUNNY     77  68  74 S10       29.86S
MCCOOK         SUNNY     83  62  49 S17G24    29.83S
$$

NEZ005>010-023>029-035>040-094-051500-
NORTH CENTRAL NEBRASKA

CITY           SKY/WX    TMP DP  RH WIND       PRES   REMARKS
VALENTINE      SUNNY     78  65  63 S10       29.79S
AINSWORTH      SUNNY     79  67  66 S14G23    29.81F
BROKEN BOW     SUNNY     76  68  76 SE13G21   29.87R
O`NEILL        MOSUNNY   74  68  83 S15       29.85S
ORD            CLOUDY    70  65  84 SE8       29.87F THUNDER
$$

NEZ041-046>049-061>064-073>077-083>087-051500-
SOUTH CENTRAL NEBRASKA

CITY           SKY/WX    TMP DP  RH WIND       PRES   REMARKS
GRAND ISLAND   PTSUNNY   72  67  84 SE7       29.89S
AURORA         CLOUDY    74  69  86 S10       29.89S
HASTINGS       MOSUNNY   74  67  78 SE12      29.88S
KEARNEY *      SUNNY     75  66  73 S14       29.87S
$$

NEZ011>018-030>034-042>045-051500-
NORTHEAST NEBRASKA

CITY           SKY/WX    TMP DP  RH WIND       PRES   REMARKS
NORFOLK        LGT RAIN  69  65  86 SE23G33   29.90F
BLAIR          CLOUDY    69  64  83 S7        29.94S
COLUMBUS *     CLOUDY    72  63  73 N9        29.95R
FREMONT        CLOUDY    71  65  81 SE7       29.94R
TEKAMAH        CLOUDY    69  65  86 N7G20     29.97R
$$

NEZ050>053-065>068-078-088>093-051500-
SOUTHEAST NEBRASKA

CITY           SKY/WX    TMP DP  RH WIND       PRES   REMARKS
LINCOLN        CLOUDY    73  67  81 S10       29.93R
OMAHA EPPLEY   CLOUDY    70  65  84 SE7       29.94R
FALLS CITY     PTSUNNY   73  68  84 SE8       29.96S
PLATTSMOUTH    CLOUDY    68  64  86 SE13      29.95R FOG
$$

NEZ044-045-051>053-067-051500-
OMAHA AREA

CITY           SKY/WX    TMP DP  RH WIND       PRES   REMARKS
OMAHA EPPLEY   CLOUDY    70  65  84 SE7       29.94R
BLAIR          CLOUDY    69  64  83 S7        29.94S
FREMONT        CLOUDY    71  65  81 SE7       29.94R
MILLARD        CLOUDY    69  65  87 SE6       29.94S
OFFUTT AFB     CLOUDY    70  65  85 SE12      29.94R
PLATTSMOUTH    CLOUDY    68  64  86 SE13      29.95R FOG
$$



USA.gov is the U.S. government's official web portal to all federal, state and local government web resources and services.